Disclaimer

Please do not use the information listed here in-flight or in-navigation, as they are not provided to us by the airports but are provided by volunteers, so they might be outdated.

Search


Regions


Airport information page

No radio frequency information is available.

Airport informations:
Latitude: 31° 08' 36.16" N
Longitude: 121° 48' 18.77" E
Elevation: 13 feet - 4 meters
Operating hours: N/A
Operating agency: Civil government, landing fees and diplomatic clearance may be required
Timezone: UTC+8
Fuel: Jet A1+, Jet A1 with icing inhibitor.

Runway information:
16/34 - 12467 x 197 feet< - >3800 x 60 meters
17/35 - 13123 x 197 feet< - >4000 x 60 meters

Recent METARs:
ZSPD 171400Z VRB01MPS 7000 NSC 03/01 Q1030 NOSIG
ZSPD 171430Z 17002MPS 7000 NSC 02/M00 Q1031 NOSIG
ZSPD 171430Z 17002MPS 7000 NSC 02/M00 Q1031 NOSIG

Airport on the map: